sat.trackr.live / text

‹ back to catalog

O3B MPOWER F1

NORAD 54755 · 2022-174A

PAYLOAD ACTIVE UNKNOWN

§ Identity

Operator
Country
O3B
Launch date
2022-12-16
Launch site
AFETR
Launch vehicle
Mass (kg)
RCS (m²)

Purposes: comms

External: N2YO · Heavens-Above · Gunter

§ Orbital elements

Epoch: 2026-09-20T03:33:18.768096Z

Period
287.93 min
Inclination
0.0424°
Eccentricity
0.0006959
Mean motion
5.00114463 rev/d
Perigee alt
8,055.9 km
Apogee alt
8,076.0 km
Semi-major
14,444.0 km
B*
0.0000e+0
RAAN
342.2775°
Arg perigee
201.5716°
Mean anomaly
277.9939°
Rev number
7,011

§ Raw data

O3B MPOWER F11 54755U 22174A   26263.14813389 -.00000026  00000+0  00000+0 0  99952 54755   0.0424 342.2775 0006959 201.5716 277.9939  5.00114463 70118

JSON: /api/v1/satellites/54755 · /tle

For live sub-satellite position, see the globe view (requires WebGL).

§ Visibility from observer

Set your observer location to see the next 7 days of passes ≥ 10°. The values pass through the URL so the page stays shareable.

No JS? Fill the form by hand. The geolocation button needs JavaScript.